Regional Weather Roundup
Issued by NWS

Home | Current Version | Previous Version | Graphics & Text | Print | Product List | Glossary On
Versions: 1 2 3 4 5 6 7 8 9 10 11 12 13 14 15 16 17 18 19 20 21 22 23 24 25 26 27 28 29 30 31 32 33 34 35 36 37 38 39 40 41 42 43 44 45 46 47 48 49 50
994
ASUS43 KLMK 231610
RWRKY
KENTUCKY REGIONAL WEATHER ROUNDUP
NATIONAL WEATHER SERVICE LOUISVILLE KY
1100 AM EST THU NOV 23 2017

NOTE "FAIR" INDICATES FEW OR NO CLOUDS BELOW 12,000 FEET
WITH NO SIGNIFICANT WEATHER AND/OR OBSTRUCTIONS TO VISIBILITY.

KYZ001>023-026-027-061>063-070>075-231700-
WESTERN AND SOUTH CENTRAL KENTUCKY

CITY           SKY/WX    TMP DP  RH WIND       PRES   REMARKS
PADUCAH        SUNNY     42  25  50 CALM      30.16F
HENDERSON      SUNNY     39  26  59 S5        30.16F
OWENSBORO      SUNNY     40  30  67 S8        30.16F WCI  34
HOPKINSVILLE   SUNNY     40  26  57 S5        30.16F
BOWLING GREEN  SUNNY     41  30  65 CALM      30.17F
GLASGOW        SUNNY     42  28  59 E3        30.16F
$$

KYZ024-025-028>034-038-045-046-053-231700-
NORTH CENTRAL KENTUCKY

CITY           SKY/WX    TMP DP  RH WIND       PRES   REMARKS
LOUISVILLE/SDF MOSUNNY   40  27  59 SE8       30.15F WCI  34
LOUISVILLE/LOU SUNNY     40  29  64 SE8       30.15F WCI  34
FORT KNOX      SUNNY     40  27  60 SE5       30.12F
$$

KYZ035>037-039>044-047>052-055>060-089>105-231700-
NORTHEAST KENTUCKY

CITY           SKY/WX    TMP DP  RH WIND       PRES   REMARKS
LEXINGTON      SUNNY     38  26  62 SE6       30.14F WCI  33
COVINGTON      MOSUNNY   37  28  70 S8        30.13F WCI  31
FRANKFORT      SUNNY     39  26  59 S5        30.14F
$$

KYZ054-064>069-076>088-106>120-231700-
SOUTHEAST KENTUCKY

CITY           SKY/WX    TMP DP  RH WIND       PRES   REMARKS
JACKSON        SUNNY     37  27  67 VRB3      30.14S
LONDON         SUNNY     37  26  64 CALM      30.14F
SOMERSET       SUNNY     37  28  70 CALM      30.17F
MIDDLESBORO    SUNNY     39  29  67 CALM      30.14F
MONTICELLO     SUNNY     39  30  70 VRB5      30.17F
$$





USA.gov is the U.S. government's official web portal to all federal, state and local government web resources and services.